When you browse on this site, cookies collect data to enhance your experience and personalize the content and advertising you see.
Visit our Privacy Policy to learn more. By continuing to use the site, you agree to this use of cookies and data.
  • în România
  • Lista ţărilor
  • Pe 7 zile
  • Temperatura apei
  • Hartă satelitară
  • Meteo pe hartă
  • Widget-uri
  • user-avatar
    Intrare

    Meteo pe oră la Borşa

    Astăzi, 20 Ianuarie, Duminică

    Timp Temperatura Precipitaţii Vânt Presiune Umiditate
    00:00 -4°C° 0.2 mm 1 m/s 682 mmHg 94%
    01:00 -4°C° 0.2 mm 1 m/s 681 mmHg 94%
    02:00 -4°C° 0 mm 0 m/s 681 mmHg 95%
    03:00 -3°C° 0.2 mm 1 m/s 681 mmHg 95%
    04:00 -3°C° 0.2 mm 1 m/s 681 mmHg 95%
    05:00 -3°C° 0.2 mm 1 m/s 680 mmHg 95%
    06:00 -3°C° 0.1 mm 1 m/s 680 mmHg 95%
    07:00 -3°C° 0.1 mm 1 m/s 680 mmHg 95%
    08:00 -3°C° 0.1 mm 1 m/s 679 mmHg 95%
    09:00 -2°C° 0.3 mm 1 m/s 679 mmHg 95%
    10:00 -1°C° 0.3 mm 1 m/s 680 mmHg 94%
    11:00 0°C° 0.3 mm 1 m/s 680 mmHg 93%
    12:00 +1°C° 0.6 mm 1 m/s 679 mmHg 94%
    13:00 +1°C° 0.6 mm 1 m/s 679 mmHg 94%
    14:00 +1°C° 0.6 mm 1 m/s 679 mmHg 95%
    15:00 +1°C° 0.6 mm 1 m/s 678 mmHg 95%
    16:00 0°C° 0.6 mm 0 m/s 678 mmHg 96%
    17:00 -1°C° 0.6 mm 0 m/s 678 mmHg 97%
    18:00 -1°C° 0.5 mm 0 m/s 678 mmHg 97%
    19:00 -1°C° 0.5 mm 0 m/s 678 mmHg 97%
    20:00 -2°C° 0.5 mm 0 m/s 678 mmHg 97%
    21:00 -2°C° 0.4 mm 0 m/s 678 mmHg 97%
    22:00 -2°C° 0.4 mm 0 m/s 678 mmHg 97%
    23:00 -2°C° 0.4 mm 0 m/s 679 mmHg 97%

    Mâine, 21 Ianuarie, Luni

    Timp Temperatura Precipitaţii Vânt Presiune Umiditate
    00:00 -3°C° 0.5 mm 0 m/s 679 mmHg 97%
    01:00 -3°C° 0.5 mm 0 m/s 679 mmHg 97%
    02:00 -3°C° 0.5 mm 0 m/s 679 mmHg 97%
    03:00 -3°C° 0.3 mm 1 m/s 680 mmHg 97%
    04:00 -3°C° 0.3 mm 1 m/s 680 mmHg 96%
    05:00 -4°C° 0.3 mm 1 m/s 680 mmHg 96%
    06:00 -4°C° 0.1 mm 1 m/s 680 mmHg 95%
    07:00 -6°C° 0.1 mm 1 m/s 680 mmHg 95%
    08:00 -6°C° 0.1 mm 1 m/s 681 mmHg 94%
    09:00 -4°C° 0 mm 1 m/s 681 mmHg 92%
    10:00 -3°C° 0 mm 1 m/s 682 mmHg 89%
    11:00 -3°C° 0 mm 1 m/s 682 mmHg 86%
    12:00 -2°C° 0 mm 1 m/s 682 mmHg 85%
    13:00 -1°C° 0 mm 1 m/s 682 mmHg 84%
    14:00 -1°C° 0 mm 1 m/s 683 mmHg 82%
    15:00 -2°C° 0.1 mm 1 m/s 682 mmHg 86%
    16:00 -3°C° 0.1 mm 1 m/s 682 mmHg 89%
    17:00 -4°C° 0.1 mm 1 m/s 682 mmHg 92%
    18:00 -6°C° 0 mm 1 m/s 682 mmHg 93%
    19:00 -6°C° 0 mm 1 m/s 682 mmHg 93%
    20:00 -7°C° 0 mm 1 m/s 682 mmHg 94%
    21:00 -7°C° 0 mm 1 m/s 682 mmHg 94%
    22:00 -7°C° 0 mm 1 m/s 682 mmHg 94%
    23:00 -7°C° 0 mm 1 m/s 682 mmHg 94%

    Poimâine, 22 Ianuarie, Marţi

    Timp Temperatura Precipitaţii Vânt Presiune Umiditate
    00:00 -7°C° 0 mm 1 m/s 682 mmHg 95%
    01:00 -7°C° 0 mm 1 m/s 682 mmHg 96%
    02:00 -7°C° 0 mm 1 m/s 681 mmHg 96%
    03:00 -7°C° 0 mm 1 m/s 681 mmHg 96%
    04:00 -7°C° 0 mm 1 m/s 681 mmHg 96%
    05:00 -7°C° 0 mm 1 m/s 680 mmHg 97%
    06:00 -7°C° 0 mm 1 m/s 680 mmHg 97%
    07:00 -8°C° 0 mm 1 m/s 680 mmHg 97%
    08:00 -8°C° 0 mm 1 m/s 680 mmHg 96%
    09:00 -6°C° 0 mm 1 m/s 680 mmHg 94%
    10:00 -4°C° 0 mm 1 m/s 680 mmHg 92%
    11:00 -3°C° 0 mm 1 m/s 680 mmHg 90%
    12:00 -2°C° 0 mm 1 m/s 680 mmHg 88%
    13:00 -1°C° 0 mm 1 m/s 679 mmHg 86%
    14:00 -1°C° 0 mm 1 m/s 679 mmHg 84%
    15:00 -2°C° 0 mm 1 m/s 678 mmHg 86%
    16:00 -4°C° 0 mm 1 m/s 677 mmHg 89%
    17:00 -6°C° 0 mm 0 m/s 676 mmHg 91%
    18:00 -6°C° 0 mm 1 m/s 676 mmHg 91%
    19:00 -6°C° 0 mm 1 m/s 676 mmHg 91%
    20:00 -6°C° 0 mm 1 m/s 676 mmHg 91%
    21:00 -6°C° 0 mm 1 m/s 676 mmHg 91%
    22:00 -6°C° 0 mm 1 m/s 675 mmHg 90%
    23:00 -6°C° 0 mm 1 m/s 675 mmHg 90%

    23 Ianuarie, Miercuri

    Timp Temperatura Precipitaţii Vânt Presiune Umiditate
    00:00 -4°C° 0.1 mm 1 m/s 675 mmHg 90%
    01:00 -4°C° 0.1 mm 1 m/s 674 mmHg 91%
    02:00 -3°C° 0.1 mm 1 m/s 674 mmHg 92%
    03:00 -3°C° 0.1 mm 1 m/s 674 mmHg 92%
    04:00 -2°C° 0.1 mm 1 m/s 673 mmHg 93%
    05:00 -2°C° 0.1 mm 1 m/s 673 mmHg 93%
    06:00 -2°C° 0 mm 1 m/s 672 mmHg 93%
    07:00 -2°C° 0 mm 1 m/s 672 mmHg 93%
    08:00 -2°C° 0 mm 1 m/s 672 mmHg 93%
    09:00 -1°C° 0.1 mm 1 m/s 672 mmHg 93%
    10:00 0°C° 0.1 mm 1 m/s 672 mmHg 93%
    11:00 +2°C° 0.1 mm 1 m/s 673 mmHg 93%
    12:00 +2°C° 0 mm 1 m/s 672 mmHg 94%
    13:00 +3°C° 0 mm 1 m/s 672 mmHg 95%
    14:00 +3°C° 0 mm 1 m/s 672 mmHg 96%
    15:00 +3°C° 0 mm 1 m/s 672 mmHg 96%
    16:00 +2°C° 0 mm 1 m/s 672 mmHg 95%
    17:00 +1°C° 0 mm 1 m/s 671 mmHg 94%
    18:00 0°C° 0 mm 1 m/s 672 mmHg 94%
    19:00 0°C° 0 mm 1 m/s 672 mmHg 93%
    20:00 -1°C° 0 mm 1 m/s 672 mmHg 93%
    21:00 -1°C° 0 mm 1 m/s 672 mmHg 93%
    22:00 -2°C° 0 mm 1 m/s 672 mmHg 92%
    23:00 -2°C° 0 mm 1 m/s 672 mmHg 92%

    24 Ianuarie, Joi

    Timp Temperatura Precipitaţii Vânt Presiune Umiditate
    00:00 -2°C° 0 mm 1 m/s 672 mmHg 92%
    01:00 -2°C° 0 mm 1 m/s 672 mmHg 92%
    02:00 -2°C° 0 mm 1 m/s 671 mmHg 92%
    03:00 -1°C° 0.1 mm 1 m/s 672 mmHg 92%
    04:00 -1°C° 0.1 mm 1 m/s 672 mmHg 92%
    05:00 0°C° 0.1 mm 1 m/s 672 mmHg 92%
    06:00 0°C° 0.1 mm 1 m/s 672 mmHg 92%
    07:00 -1°C° 0.1 mm 1 m/s 672 mmHg 92%
    08:00 -1°C° 0.1 mm 1 m/s 671 mmHg 92%
    09:00 -1°C° 0 mm 0 m/s 672 mmHg 93%
    10:00 +1°C° 0 mm 0 m/s 672 mmHg 95%
    11:00 +2°C° 0 mm 0 m/s 672 mmHg 96%
    12:00 +3°C° 0 mm 0 m/s 672 mmHg 96%
    13:00 +3°C° 0 mm 0 m/s 672 mmHg 97%
    14:00 +4°C° 0 mm 0 m/s 672 mmHg 97%
    15:00 +4°C° 0 mm 1 m/s 672 mmHg 97%
    16:00 +3°C° 0 mm 1 m/s 672 mmHg 97%
    17:00 +3°C° 0 mm 1 m/s 672 mmHg 97%
    18:00 +1°C° 0 mm 2 m/s 672 mmHg 96%
    19:00 -1°C° 0 mm 2 m/s 671 mmHg 96%
    20:00 -1°C° 0 mm 2 m/s 671 mmHg 95%
    21:00 -1°C° 0.1 mm 2 m/s 671 mmHg 94%
    22:00 -2°C° 0.1 mm 2 m/s 672 mmHg 94%
    23:00 -2°C° 0.1 mm 2 m/s 672 mmHg 93%

    25 Ianuarie, Vineri

    Timp Temperatura Precipitaţii Vânt Presiune Umiditate
    00:00 -2°C° 0 mm 2 m/s 671 mmHg 93%
    01:00 -2°C° 0 mm 2 m/s 671 mmHg 94%
    02:00 -2°C° 0 mm 2 m/s 671 mmHg 94%
    03:00 -2°C° 0 mm 2 m/s 671 mmHg 94%
    04:00 -2°C° 0 mm 2 m/s 671 mmHg 93%
    05:00 -1°C° 0 mm 2 m/s 671 mmHg 93%
    06:00 -1°C° 0 mm 2 m/s 671 mmHg 93%
    07:00 -1°C° 0 mm 2 m/s 671 mmHg 93%
    08:00 -1°C° 0 mm 2 m/s 671 mmHg 93%
    09:00 -1°C° 0.1 mm 2 m/s 672 mmHg 92%
    10:00 +1°C° 0.1 mm 2 m/s 672 mmHg 92%
    11:00 +2°C° 0.1 mm 2 m/s 673 mmHg 91%
    12:00 +2°C° 0.1 mm 2 m/s 673 mmHg 91%
    13:00 +2°C° 0.1 mm 2 m/s 673 mmHg 92%
    14:00 +2°C° 0.1 mm 2 m/s 673 mmHg 92%
    15:00 +2°C° 0.1 mm 2 m/s 673 mmHg 91%
    16:00 +1°C° 0.1 mm 2 m/s 673 mmHg 91%
    17:00 +1°C° 0.1 mm 2 m/s 673 mmHg 91%
    18:00 -1°C° 0 mm 2 m/s 673 mmHg 91%
    19:00 -1°C° 0 mm 2 m/s 673 mmHg 92%
    20:00 -2°C° 0 mm 2 m/s 674 mmHg 92%
    21:00 -2°C° 0.1 mm 2 m/s 674 mmHg 92%
    22:00 -2°C° 0.1 mm 2 m/s 674 mmHg 91%
    23:00 -2°C° 0.1 mm 2 m/s 675 mmHg 91%
    Arată mai mult